Regional Weather Roundup
Issued by NWS New Orleans/Baton Rouge, LA

Home | Current Version | Previous Version | Text Only | Print | Product List | Glossary On
Versions: 1 2 3 4 5 6 7 8 9 10 11 12 13 14 15 16 17 18 19 20 21 22 23 24 25 26 27 28 29 30 31 32 33 34 35 36 37 38 39 40 41 42 43 44 45 46 47 48 49 50
000
ASUS44 KLIX 300011
RWRLIX
NEW ORLEANS REGIONAL WEATHER ROUNDUP
NATIONAL WEATHER SERVICE NEW ORLEANS LA
700 PM CDT MON JUN 29 2015

NOTE: "FAIR" INDICATES FEW OR NO CLOUDS BELOW 12,000 FEET WITH NO
      SIGNIFICANT WEATHER AND/OR OBSTRUCTIONS TO VISIBILITY.
      SKY/WX - SKY CONDITION AND SIGNIFICANT WEATHER.
      TMP - AIR TEMPERATURE.     DP    - DEWPOINT TEMPERATURE.
      RH  - RELATIVE HUMIDITY.   PRES  - PRESSURE.
      HI  - HEAT INDEX.          WCI   - WIND CHILL INDEX.

*  THESE STATIONS ARE NOT NWS OR FAA STATIONS AND ARE NOT UNDER
   NWS QUALITY CONTROL.

LAZ038-040-048-061>063-065>067-069-300100-
SOUTHEAST LOUISIANA

CITY           SKY/WX    TMP DP  RH WIND       PRES   REMARKS
N.O. AUDUBON     N/A    N/A N/A N/A MISG        N/A
                   6HR MAX TEMP:  95;

N.O. INTL ARPT PTSUNNY   87  71  58 VRB3      29.99F
6HR MIN TEMP:  83; 6HR MAX TEMP:  92;

N.O. LAKEFRONT MOSUNNY   84  75  74 S3        30.00F
6HR MIN TEMP:  82; 6HR MAX TEMP:  94; 6HR PCP:  0.11;

N.O. DOWNTOWN*   N/A     90  72  55 SW6       30.00F HX  96
6HR MIN TEMP:  84; 6HR MAX TEMP:  95;

RESERVE*       NOT AVBL
SLIDELL        PTSUNNY   84  75  74 S6        29.98F
6HR MIN TEMP:  73; 6HR MAX TEMP:  89; 6HR PCP:  0.21;

BATON ROUGE    MOSUNNY   87  73  62 SW10      29.98S
6HR MIN TEMP:  81; 6HR MAX TEMP:  89; 6HR PCP: TRACE;

BOOTHVILLE     MOSUNNY   85  75  72 SW12      30.03S
6HR MIN TEMP:  85; 6HR MAX TEMP:  88;

BELLE CHASSE   PTSUNNY   86  73  65 SW10      29.99F
6HR MIN TEMP:  84; 6HR MAX TEMP:  90;

BOGALUSA*        N/A     86  74  68 SW7       29.99F
6HR MIN TEMP:  75; 6HR MAX TEMP:  86; 6HR PCP:  0.03;

GALLIANO*      CLEAR     87  75  66 MISG      30.02S HX  97
6HR MIN TEMP:  87; 6HR MAX TEMP:  91;

NEW ROADS*       N/A    N/A N/A N/A S5        29.97S
GONZALES*        N/A     86  75  71 SW5       29.98S HX  95
6HR MIN TEMP:  83; 6HR MAX TEMP:  89;

HAMMOND*       MOSUNNY   88  72  58 SW6       30.00S
HOUMA*         MOSUNNY   86  73  66 SW12      30.01
PORT FOURCHON* CLEAR     86  75  70 SW9G16    30.04S HX  95

$$

MSZ070-080>082-300100-
SOUTHERN MISSISSIPPI

CITY           SKY/WX    TMP DP  RH WIND       PRES   REMARKS
MCCOMB         MOSUNNY   82  75  79 SW3       30.00R
6HR MIN TEMP:  76; 6HR MAX TEMP:  86; 6HR PCP:  0.14;

GULFPORT       CLOUDY    77  70  79 SW3       29.97F
6HR MIN TEMP:  74; 6HR MAX TEMP:  81; 6HR PCP:  0.19;

BILOXI         CLOUDY    78  70  76 SW9       29.97F
6HR MIN TEMP:  74; 6HR MAX TEMP:  82; 6HR PCP:  0.28;

PASCAGOULA     CLOUDY    78  73  84 SW6       29.98F
6HR MIN TEMP:  77; 6HR MAX TEMP:  85; 6HR PCP: TRACE;

STENNIS ARPT*  SUNNY     79  70  73 MISG      29.99F

$$

COASTAL OBSERVATIONS
LAKE AND NEARSHORE STATIONS

STATION/POSITION TIME  TEMP    WIND        PRES    WAVE
                       AIR SEA DIR/SP/G            HT/PER
                 (UTC) (F)     (DEG/KT/KT) (MB)    (FT/S)
PASCAGOULA       2300   81     250/ 11/ 15 1015.1
WAVELAND YACHT   2300   77 85  210/  4/  6 1016.3
GRAND ISLE       2300   86 87  220/  8/ 14 1017.1
SOUTHWEST PASS   2300   86 84  250/ 12/ 13 1017.6
NEW CANAL        2300   81 85  170/  1/  4 1015.4
SHELL BEACH      2300   78 85  190/  7/ 12 1015.8

OFFSHORE STATIONS

STATION/POSITION TIME  TEMP    WIND        PRES    WAVE
                       AIR SEA DIR/SP/G            HT/PER
                 (UTC) (F)     (DEG/KT/KT) (MB)    (FT/S)
64 S DAUPHIN ISL 2350   84 84  230/ 14/ 17 1016.5    2/ 4

$$



USA.gov is the U.S. government's official web portal to all federal, state and local government web resources and services.